Comanche, TX

11:42 PM CST on December 11, 2017 (GMT -0600)
Comanche

Weather History for KMKN - April, 2013

Change the Weather History Date:

Wednesday, April 3, 2013

  Actual Average (KSEP) Record (KSEP)
Temperature  
Mean Temperature 48 °F -  
Max Temperature 53 °F 73 °F 95 °F (1950)
Min Temperature 42 °F 50 °F 28 °F (1975)
Degree Days  
Heating Degree Days 18    
Moisture  
Dew Point 43 °F    
Average Humidity 96    
Maximum Humidity 100    
Minimum Humidity 87    
Precipitation  
Precipitation 0.96 in - - ()
Sea Level Pressure  
Sea Level Pressure 30.07 in    
Wind  
Wind Speed 13 mph (NNW)    
Max Wind Speed 28 mph    
Max Gust Speed 32 mph    
Visibility 8 miles    
Events Rain , Thunderstorm    
Averages and records for this station are not official NWS values.
T = Trace of Precipitation, MM = Missing Value Source: NWS Daily Summary

Daily Weather History Graph

Daily Weather History Graph

Search for Another Location

Airport or City:

Trip Planner

Search our weather history database for the weather conditions in past years. The results will help you decide how hot, cold, wet, or windy it might be!

Date:

Astronomy

Apr. 03, 2013 Rise Set
Actual Time 7:19 AM CDT 7:55 PM CDT
Civil Twilight 6:55 AM CDT 8:20 PM CDT
Nautical Twilight 6:26 AM CDT 8:49 PM CDT
Astronomical Twilight 5:56 AM CDT 9:18 PM CDT
Moon 2:39 AM CDT (4/3) 1:31 PM CDT (4/3)
Length of Visible Light 13h 24m
Length of Day
12h 35m
Last Quarter, 44% of the Moon is Illuminated
Apr 3
Last Quarter
Apr 10
New
Apr 18
First Quarter
Apr 25
Full
May 2
Last Quarter

Hourly Weather History & Observations

Time (CDT) Temp. Windchill Dew Point Humidity Pressure Visibility Wind Dir Wind Speed Gust Speed Precip Events Conditions
12:15 AM 46.4 °F 40.7 °F 44.6 °F 93% 30.02 in 3.0 mi NE 12.7 mph - 0.25 in Rain , Thunderstorm Heavy Thunderstorms and Rain
12:35 AM 46.4 °F 39.8 °F 44.6 °F 93% 30.01 in 3.0 mi NNE 16.1 mph - 0.42 in Rain , Thunderstorm Heavy Thunderstorms and Rain
12:55 AM 46.4 °F 42.4 °F 46.4 °F 100% 29.99 in 10.0 mi NE 8.1 mph - 0.49 in Rain , Thunderstorm Thunderstorms and Rain
1:15 AM 50.0 °F - 48.2 °F 94% 29.99 in 7.0 mi ENE 6.9 mph - 0.07 in Rain , Thunderstorm Rain
1:35 AM 50.0 °F - 48.2 °F 94% 29.99 in 7.0 mi South 10.4 mph - 0.15 in Rain Rain
1:55 AM 50.0 °F - 48.2 °F 94% 29.98 in 7.0 mi SSE 8.1 mph - 0.25 in Rain , Thunderstorm Rain
2:15 AM 50.0 °F - 50.0 °F 100% 29.87 in 3.0 mi ENE 27.6 mph 32.2 mph 0.11 in Rain Heavy Rain
2:35 AM 53.6 °F - 53.6 °F 100% 29.92 in 10.0 mi NE 11.5 mph 24.2 mph 0.14 in Rain Light Rain
2:55 AM 51.8 °F - 50.0 °F 94% 29.95 in 10.0 mi NW 17.3 mph - 0.14 in   Mostly Cloudy
3:15 AM 44.6 °F 36.9 °F 44.6 °F 100% 29.95 in 10.0 mi NW 18.4 mph 24.2 mph N/A   Overcast
3:35 AM 44.6 °F 37.8 °F 44.6 °F 100% 29.95 in 10.0 mi NNW 15.0 mph 23.0 mph N/A   Overcast
3:55 AM 44.6 °F 36.4 °F 44.6 °F 100% 29.96 in 10.0 mi NW 20.7 mph 26.5 mph N/A   Overcast
4:15 AM 44.6 °F 37.2 °F 44.6 °F 100% 29.96 in 10.0 mi NNW 17.3 mph 27.6 mph N/A   Overcast
4:35 AM 44.6 °F 36.4 °F 44.6 °F 100% 29.97 in 7.0 mi NNW 20.7 mph 25.3 mph N/A   Overcast
4:55 AM 44.6 °F 37.8 °F 42.8 °F 93% 29.99 in 7.0 mi NNW 15.0 mph 23.0 mph N/A   Overcast
5:15 AM 42.8 °F 35.4 °F 42.8 °F 100% 30.00 in 5.0 mi NNW 15.0 mph 23.0 mph N/A   Overcast
5:35 AM 42.8 °F 34.0 °F 42.8 °F 100% 30.01 in 3.0 mi NNW 20.7 mph - N/A   Overcast
5:55 AM 42.8 °F 35.1 °F 42.8 °F 100% 30.03 in 2.5 mi NNW 16.1 mph 24.2 mph N/A   Overcast
6:15 AM 42.8 °F 34.8 °F 42.8 °F 100% 30.04 in 3.0 mi NNW 17.3 mph 21.9 mph N/A   Overcast
6:35 AM 42.8 °F 35.1 °F 42.8 °F 100% 30.05 in 3.0 mi NNW 16.1 mph - N/A   Light Drizzle
6:55 AM 42.8 °F 35.1 °F 41.0 °F 93% 30.05 in 3.0 mi NNW 16.1 mph 23.0 mph N/A Rain Light Rain
7:15 AM 42.8 °F 37.0 °F 42.8 °F 100% 30.06 in 3.0 mi NNW 10.4 mph - N/A Rain Light Rain
7:35 AM 42.8 °F 36.2 °F 42.8 °F 100% 30.06 in 2.0 mi North 12.7 mph 18.4 mph N/A   Light Drizzle
7:55 AM 42.8 °F 36.6 °F 42.8 °F 100% 30.07 in 2.5 mi NNW 11.5 mph - N/A   Overcast
8:15 AM 42.8 °F 36.6 °F 42.8 °F 100% 30.06 in 4.0 mi NNW 11.5 mph - N/A   Overcast
8:35 AM 42.8 °F 35.1 °F 42.8 °F 100% 30.07 in 10.0 mi North 16.1 mph - N/A   Overcast
8:55 AM 42.8 °F 35.8 °F 42.8 °F 100% 30.07 in 10.0 mi NNW 13.8 mph - N/A   Overcast
9:15 AM 42.8 °F 36.2 °F 42.8 °F 100% 30.07 in 10.0 mi North 12.7 mph - N/A   Overcast
9:35 AM 42.8 °F 36.2 °F 42.8 °F 100% 30.09 in 10.0 mi North 12.7 mph - N/A   Overcast
9:55 AM 42.8 °F 36.2 °F 42.8 °F 100% 30.09 in 7.0 mi North 12.7 mph - N/A   Overcast
10:15 AM 42.8 °F 35.8 °F 42.8 °F 100% 30.10 in 10.0 mi North 13.8 mph 17.3 mph N/A   Overcast
10:35 AM 44.6 °F 39.2 °F 42.8 °F 93% 30.12 in 10.0 mi NNW 10.4 mph - N/A   Overcast
10:55 AM 44.6 °F 38.8 °F 42.8 °F 93% 30.12 in 10.0 mi North 11.5 mph - N/A   Overcast
11:15 AM 44.6 °F 39.2 °F 42.8 °F 93% 30.12 in 10.0 mi NNW 10.4 mph 16.1 mph N/A   Overcast
11:35 AM 44.6 °F 37.8 °F 42.8 °F 93% 30.10 in 10.0 mi North 15.0 mph - N/A Thunderstorm Overcast
11:55 AM 44.6 °F 38.8 °F 42.8 °F 93% 30.10 in 10.0 mi North 11.5 mph - N/A   Overcast
12:15 PM 44.6 °F 38.4 °F 42.8 °F 93% 30.11 in 10.0 mi North 12.7 mph - N/A   Overcast
12:35 PM 44.6 °F 38.8 °F 42.8 °F 93% 30.10 in 10.0 mi North 11.5 mph - N/A   Overcast
12:55 PM 44.6 °F 38.8 °F 42.8 °F 93% 30.09 in 10.0 mi NNW 11.5 mph 17.3 mph N/A   Overcast
1:15 PM 44.6 °F 38.1 °F 42.8 °F 93% 30.10 in 10.0 mi North 13.8 mph 18.4 mph N/A   Overcast
1:35 PM 44.6 °F 38.4 °F 42.8 °F 93% 30.10 in 10.0 mi NNW 12.7 mph 17.3 mph N/A Thunderstorm Overcast
1:55 PM 44.6 °F 38.8 °F 42.8 °F 93% 30.09 in 10.0 mi NNW 11.5 mph 17.3 mph N/A Thunderstorm Overcast
2:15 PM 44.6 °F 37.8 °F 44.6 °F 100% 30.09 in 5.0 mi NNW 15.0 mph - N/A Thunderstorm Overcast
2:35 PM 44.6 °F 38.1 °F 42.8 °F 93% 30.10 in 4.0 mi NNW 13.8 mph 20.7 mph N/A Thunderstorm Overcast
2:55 PM 44.6 °F 37.2 °F 42.8 °F 93% 30.10 in 2.5 mi NNW 17.3 mph 20.7 mph N/A Rain , Thunderstorm Light Thunderstorms and Rain
3:15 PM 44.6 °F 38.1 °F 42.8 °F 93% 30.09 in 4.0 mi NNW 13.8 mph 18.4 mph 0.04 in Rain Heavy Rain
3:35 PM 44.6 °F 37.8 °F 42.8 °F 93% 30.09 in 10.0 mi NNW 15.0 mph 20.7 mph 0.07 in Rain , Thunderstorm Light Thunderstorms and Rain
3:55 PM 44.6 °F 39.2 °F 42.8 °F 93% 30.10 in 10.0 mi NNW 10.4 mph 18.4 mph 0.08 in Rain , Thunderstorm Light Thunderstorms and Rain
4:15 PM 44.6 °F 38.8 °F 42.8 °F 93% 30.09 in 10.0 mi NNW 11.5 mph - N/A   Light Drizzle
4:35 PM 44.6 °F 38.1 °F 42.8 °F 93% 30.09 in 10.0 mi NNW 13.8 mph - N/A   Overcast
4:55 PM 42.8 °F 36.2 °F 42.8 °F 100% 30.08 in 10.0 mi NNW 12.7 mph 20.7 mph N/A   Overcast
5:15 PM 44.6 °F 38.4 °F 42.8 °F 93% 30.08 in 10.0 mi NNW 12.7 mph - N/A   Overcast
5:35 PM 44.6 °F 37.8 °F 42.8 °F 93% 30.08 in 10.0 mi NNW 15.0 mph 19.6 mph N/A   Overcast
5:55 PM 44.6 °F 38.1 °F 42.8 °F 93% 30.09 in 10.0 mi NNW 13.8 mph 18.4 mph N/A   Overcast
6:15 PM 42.8 °F 35.4 °F 42.8 °F 100% 30.09 in 10.0 mi NNW 15.0 mph 18.4 mph N/A   Overcast
6:35 PM 42.8 °F 35.8 °F 41.0 °F 93% 30.10 in 10.0 mi NNW 13.8 mph 19.6 mph N/A   Overcast
6:55 PM 44.6 °F 39.7 °F 41.0 °F 87% 30.10 in 10.0 mi NNW 9.2 mph - N/A   Overcast
7:15 PM 44.6 °F 38.4 °F 41.0 °F 87% 30.11 in 10.0 mi North 12.7 mph - N/A   Overcast
7:35 PM 44.6 °F 39.7 °F 41.0 °F 87% 30.11 in 10.0 mi North 9.2 mph - N/A   Overcast
7:55 PM 44.6 °F 40.2 °F 41.0 °F 87% 30.11 in 10.0 mi North 8.1 mph - N/A   Overcast
8:15 PM 42.8 °F 37.5 °F 41.0 °F 93% 30.13 in 10.0 mi NNW 9.2 mph - N/A   Overcast
8:35 PM 42.8 °F 36.6 °F 41.0 °F 93% 30.13 in 10.0 mi North 11.5 mph - N/A   Overcast
8:55 PM 42.8 °F 38.0 °F 41.0 °F 93% 30.14 in 10.0 mi NNW 8.1 mph - N/A   Overcast
9:15 PM 42.8 °F 37.0 °F 42.8 °F 100% 30.15 in 7.0 mi NNW 10.4 mph - N/A   Overcast
9:35 PM 42.8 °F 37.5 °F 42.8 °F 100% 30.15 in 5.0 mi NNW 9.2 mph - N/A   Overcast
9:55 PM 42.8 °F 38.0 °F 42.8 °F 100% 30.16 in 5.0 mi NW 8.1 mph - N/A   Overcast
10:15 PM 42.8 °F 36.2 °F 41.0 °F 93% 30.17 in 4.0 mi NNW 12.7 mph - N/A   Overcast
10:35 PM 42.8 °F 37.0 °F 41.0 °F 93% 30.17 in 4.0 mi NNW 10.4 mph 16.1 mph N/A   Overcast
10:55 PM 42.8 °F 37.0 °F 41.0 °F 93% 30.18 in 7.0 mi NNW 10.4 mph - N/A   Overcast
11:15 PM 42.8 °F 37.5 °F 41.0 °F 93% 30.18 in 7.0 mi NNW 9.2 mph - N/A   Overcast
11:35 PM 42.8 °F 37.0 °F 41.0 °F 93% 30.18 in 3.0 mi NNW 10.4 mph - N/A Rain Light Rain
11:55 PM 42.8 °F 36.6 °F 41.0 °F 93% 30.18 in 3.0 mi NNW 11.5 mph - N/A   Overcast